Flag for U.S.A. Weather past 2 weeks in Fort Bragg, California, U.S.A.

Now
67 °F

Sunny.


Feels Like: 67 °F
Forecast: 49 / 58 °F
Wind: 10 mph from Northwest

Location: Ukiah Municipal

Current Time: Jan 28, 2015 at 4:21:47 PM

Latest Report: Jan 28, 2015 at 3:56 PM


Visibility: 10 mi

Pressure: 30.16 "Hg

Humidity: 36%

Dew point: 39 °F

Location of Fort BraggLocation

Historic Weather in Fort Bragg — Graph

°F

Fort Bragg temperature yesterday

Maximum temperature yesterday: 61 °F (at 12:56 PM)
Minimum temperature yesterday: 47 °F (at 4:56 AM)
Average temperature yesterday: 53 °F

Past Weeks' High & Low Weather Summary

 TemperatureHumidityPressure
High76 °F (Jan 24, 2:56 PM)97% (Jan 17, 7:56 AM)30.40 "Hg (Jan 17, 7:56 AM)
Low31 °F (Jan 14, 6:56 AM)35% (Jan 28, 2:56 PM)29.95 "Hg (Jan 26, 3:56 PM)
Average50 °F80%30.20 "Hg
* Reported Jan 13 2:56 PM — Jan 28 2:56 PM, Fort Bragg, Weather by CustomWeather, © 2014

Note: Actual official high and low records may vary slightly from our data, if they occured in-between our weather recording intervals... More about our weather records

Advertising

Fort Bragg weather history for previous 24 hours

 ConditionsComfort  
Time TempWeatherWind HumidityBarometerVisibility
2:56 PM
Jan 28
70 °FSunny.9 mph35%30.16 "Hg10 mi
1:56 PM68 °FSunny.No wind39%30.17 "Hg10 mi
12:56 PM66 °FSunny.No wind40%30.20 "Hg10 mi
11:56 AM61 °FSunny.No wind54%30.24 "Hg10 mi
10:56 AM56 °FPassing clouds.No wind67%30.27 "Hg9 mi
9:56 AM51 °FOvercast.No wind83%30.29 "Hg10 mi
8:56 AM49 °FOvercast.No wind86%30.28 "Hg10 mi
7:56 AM47 °FOvercast.No wind90%30.27 "Hg10 mi
6:56 AM46 °FOvercast.No wind89%30.27 "Hg10 mi
5:56 AM46 °FOvercast.No wind89%30.27 "Hg10 mi
4:56 AM46 °FOvercast.No wind89%30.26 "Hg10 mi
3:56 AM45 °FPassing clouds.No wind93%30.26 "Hg10 mi
2:56 AM45 °FClear.No wind90%30.26 "Hg10 mi
1:56 AM48 °FPassing clouds.No wind89%30.26 "Hg8 mi
12:56 AM50 °FPassing clouds.No wind86%30.25 "Hg10 mi
11:56 PM
Jan 27
49 °FOvercast.No wind90%30.26 "Hg10 mi
10:56 PM51 °FPassing clouds.No wind86%30.26 "Hg10 mi
9:56 PM52 °FPassing clouds.No wind83%30.25 "Hg10 mi
8:56 PM53 °FClear.No wind83%30.24 "Hg10 mi
7:56 PM56 °FPassing clouds.No wind75%30.23 "Hg10 mi
6:56 PM57 °FOvercast.3 mph74%30.22 "Hg10 mi
5:56 PM58 °FOvercast.No wind72%30.20 "Hg10 mi
4:56 PM59 °FMostly cloudy.5 mph69%30.19 "Hg10 mi
Weather by CustomWeather, © 2014

See weather overviewHow to use our weather pages